Location: Dayton
(39.7590°N, 84.1920°W)
Time: 10:45:58
(UTC-04:00)

Daily predictions for brighter satellites

Satellite Brightness Start Highest point End
(mag) Time Altitude Azimuth Time Altitude Azimuth Time Altitude Azimuth
HJ-1C 4.0 20:51:58 10° S 20:55:22 63° WSW 20:58:48 10° NNW
FENGYUN 3A 4.2 20:53:25 10° S 20:58:42 62° W 21:04:01 10° NNW
Cosmos 220 Rocket 4.1 20:59:33 10° NNW 21:04:02 76° ENE 21:08:27 10° SSE
Cosmos 2242 Rocket 3.7 21:00:10 10° S 21:04:33 55° E 21:08:56 10° NNE
Cosmos 1939 Rocket 4.0 21:04:56 10° SE 21:08:21 26° ENE 21:11:43 10° NNE
Cosmos 2195 Rocket 4.5 21:02:33 10° N 21:08:40 70° E 21:14:47 10° SSE
Cosmos 1992 Rocket 4.1 21:04:15 10° S 21:09:19 54° ESE 21:14:27 10° NNE
Cosmos 2279 Rocket 4.2 21:04:37 10° SSE 21:10:35 50° E 21:16:34 10° NNE
Cosmos 1627 Rocket 4.5 21:04:30 10° N 21:10:43 71° E 21:16:48 10° SSE
Intercosmos 25 Rocket 3.2 21:09:17 10° S 21:12:23 52° E 21:16:22 10° NNE
Cosmos 2263 Rocket 2.5 21:10:17 10° NNW 21:15:43 51° ENE 21:20:53 11° SE
Atlas Centaur 2 3.4 21:10:29 10° SW 21:16:16 35° SSE 21:22:34 12° ESE
Lacrosse 4 Rocket 1.6 21:16:32 10° NNW 21:20:54 78° WSW 21:25:17 10° SSE
Helios 1B rocket 2.5 21:17:43 10° NNE 21:21:46 55° E 21:25:47 10° S
Cosmos 2322 Rocket 2.4 21:19:21 10° SSW 21:24:57 75° WNW 21:30:36 10° NNE
ALOS 4.3 21:21:02 10° SSW 21:25:02 28° W 21:29:04 10° NW
ORS 1 (USA 231) 4.4 21:22:39 10° W 21:25:44 79° S 21:27:47 19° ESE
Resurs 01 Rocket 2.6 21:21:49 10° S 21:26:07 50° W 21:30:28 10° NNW
USA 267 4.1 21:20:56 10° NE 21:27:16 55° NW 21:33:36 10° WSW
SAR-Lupe-4 3.5 21:27:54 11° SSE 21:31:22 73° ENE 21:34:57 10° N
COSMOS 2428 3.9 21:29:07 14° SE 21:32:10 21° E 21:36:16 10° NE
Cosmos 2360 Rocket 2.4 21:27:56 10° S 21:33:21 49° ESE 21:38:47 10° NE
Cosmos 1825 2.4 21:30:45 10° NNW 21:34:33 70° W 21:38:19 10° S
OAO 3 Rocket 3.7 21:32:50 10° W 21:37:29 45° S 21:40:30 20° SE
Cosmos 2180 Rocket 4.5 21:33:03 10° S 21:39:23 71° E 21:45:41 10° NNE
Cosmos 1908 Rocket 4.1 21:38:53 10° N 21:42:58 39° ENE 21:45:05 23° SE
Sich 1 Rocket 4.1 21:40:19 10° N 21:44:34 41° ENE 21:46:55 23° SE
Cosmos 968 Rocket 3.8 21:40:22 10° N 21:45:25 48° ENE 21:48:27 23° SE
Cosmos 2322 3.8 21:42:59 10° S 21:48:34 56° ESE 21:54:08 10° NNE
SAR-Lupe-1 4.1 21:45:54 15° S 21:48:44 78° WSW 21:52:20 10° NNW
ATLAS 5 CENTAUR R/B 2.5 21:43:19 10° NNW 21:49:21 67° NE 21:53:36 22° SE
Cosmos 1408 3.9 21:46:18 10° NNW 21:49:45 39° W 21:53:10 10° SSW
SL-16 R/B 3.5 21:49:38 10° SW 21:55:01 44° WNW 22:00:27 10° N
Meteor 1-29 3.4 21:52:48 10° N 21:56:16 63° WNW 21:59:39 10° SSW
Cosmos 1782 Rocket 4.4 21:53:27 10° NNE 21:57:24 32° ENE 21:58:28 29° ESE
ARGOS 4.1 21:56:21 23° ESE 21:58:24 30° ENE 22:03:02 10° N
Cosmos 1867 3.7 21:52:59 10° NNW 21:58:26 65° NE 22:01:17 28° SE
Envisat 3.3 21:54:21 10° S 21:59:23 67° WSW 22:04:28 10° NNW
Cosmos 1733 Rocket 3.8 21:56:20 10° NNW 22:00:41 53° W 22:05:01 10° S
H-2A R/B 3.5 21:59:45 17° E 22:00:51 18° ENE 22:04:12 10° NNE
USA 234 3.3 21:56:41 23° ESE 22:01:01 73° NE 22:07:32 10° NW
Cosmos 1933 4.3 22:03:58 10° SSW 22:07:51 46° W 22:11:45 10° N
Okean 1-7 3.5 22:08:38 37° ESE 22:09:25 41° E 22:13:34 10° NNE
Okean 2 Rocket 3.9 22:05:25 10° NNE 22:09:30 32° ENE 22:10:03 31° E
Helios 1A 4.4 22:06:15 10° SSW 22:10:09 36° W 22:14:06 10° NNW
Cosmos 2237 Rocket 4.3 22:14:05 10° ENE 22:14:05 10° ENE 22:14:13 10° ENE
Cosmos 2333 Rocket 3.8 22:13:24 18° E 22:13:24 18° E 22:15:57 10° NE
SEDSat Delta rocket 4.3 22:10:16 10° WSW 22:15:02 35° S 22:16:15 31° SSE
Cosmos 2278 Rocket 4.0 22:12:25 10° NNE 22:15:54 16° NE 22:17:43 14° ENE
Cosmos 1844 Rocket 3.5 22:12:32 10° N 22:17:39 36° ENE 22:19:16 30° E
YAOGAN 6 2.9 22:21:30 40° SSW 22:22:34 63° W 22:26:11 10° NNW
ERS-1 Rocket 2.9 22:22:04 32° S 22:24:28 83° WSW 22:29:31 10° NNW
MetOp-A 4.1 22:25:28 39° SSE 22:27:29 75° ENE 22:32:51 10° N
SeaSat 1 3.1 22:27:56 35° E 22:28:58 40° ENE 22:33:35 10° N
Cosmos 1703 Rocket 3.7 22:27:00 25° SSW 22:29:31 74° W 22:33:57 10° N
Milstar 3 3.9 22:24:18 10° WSW 22:30:09 24° SSW 22:31:42 22° S
Cosmos 1782 3.6 22:36:14 39° NE 22:36:14 39° NE 22:39:09 10° NNE
Cosmos 2219 Rocket 2.6 22:37:34 41° E 22:37:34 41° E 22:42:21 10° NE
NOSS 3-1 (C) 3.4 22:42:31 50° SE 22:43:02 52° ESE 22:49:07 10° NE
Cosmos 2266 Rocket 4.2 22:37:24 10° NNW 22:43:41 70° W 22:47:08 29° S
YAOGAN 11 4.1 22:47:26 64° SSW 22:47:56 73° WSW 22:52:17 10° NNW
SPOT 1/Viking Rocket 3.5 22:47:40 58° ESE 22:48:17 62° ENE 22:53:27 10° N
USA 229 DEB 4.1 22:41:49 10° SW 22:48:35 65° NW 22:55:30 10° NNE
USA 229 4.0 22:41:55 10° SW 22:48:41 66° NW 22:55:37 10° NNE
Cosmos 2221 Rocket 4.0 22:48:14 39° SW 22:49:39 59° W 22:54:02 10° N
SPOT 5 2.7 22:50:39 69° S 22:51:15 86° WSW 22:55:54 10° NNW
Meteor 1-27 Rocket 4.4 22:53:16 37° ENE 22:53:16 37° ENE 22:57:43 10° NNE
Cosmos 1777 Rocket 3.9 22:52:03 10° NNW 22:57:20 78° WSW 22:58:03 65° S
NOSS 3-1 (A) 3.9 23:00:29 42° ENE 23:00:29 42° ENE 23:05:13 10° NE
Cosmos 2263 Rocket 4.2 22:55:10 10° NW 22:59:12 21° W 23:02:37 12° SW
NOSS 0 Rocket 4.3 23:01:38 44° E 23:01:38 44° E 23:06:33 10° NE
ASTEX 1 4.1 23:02:21 41° NE 23:02:21 41° NE 23:06:23 10° N
Atlas Centaur 2 3.3 22:58:31 10° WSW 23:05:12 41° S 23:05:12 41° S
Cosmos 1633 4.4 23:02:59 10° N 23:04:45 25° NNE 23:04:45 25° NNE
SL-08 RB Rocket 3.8 23:07:29 74° W 23:07:29 74° W 23:11:54 10° NNW
Cosmos 1244 Rocket 4.4 23:03:11 10° N 23:09:28 87° E 23:10:33 64° SSE
H-2A R/B 3.1 23:14:15 39° NNE 23:14:15 39° NNE 23:17:17 10° N
Meteor 1-10 Rocket 4.3 23:12:10 56° SSW 23:13:28 80° W 23:19:22 10° N
MOS 1-B Rocket 4.1 23:12:55 51° SSW 23:14:13 64° WSW 23:19:48 10° NNW
COSMOS 2428 3.4 23:10:54 12° SW 23:15:58 53° WNW 23:21:34 10° NNE
Cosmos 1553 Rocket 3.9 23:17:12 68° ESE 23:17:22 68° E 23:23:33 10° NNE
Cosmos 2360 Rocket 4.3 23:13:02 10° WSW 23:17:36 25° NW 23:22:11 10° N
Meteor 1-11 Rocket 3.9 23:13:28 10° N 23:18:30 58° ENE 23:18:30 58° ENE
SL-08 R/B 4.4 23:13:58 10° N 23:20:05 67° E 23:20:08 67° E
CZ-4C R/B 3.3 23:15:53 10° NNW 23:22:51 53° NE 23:24:27 46° E
Landsat 7 4.1 23:25:08 63° NNW 23:25:08 63° NNW 23:29:08 10° NNW
Cosmos 1980 4.2 23:28:48 50° NE 23:28:48 50° NE 23:33:02 10° NNE
Cosmos 1844 3.7 23:24:24 10° NNW 23:29:52 75° W 23:29:52 75° W
SL-16 R/B 4.2 23:36:36 17° NE 23:36:36 17° NE 23:38:06 10° NE
ATLAS 5 CENTAUR R/B 4.1 23:29:03 10° WNW 23:33:42 22° WSW 23:35:10 21° SW
SL-19 R/B 4.3 23:29:15 10° NNE 23:34:49 74° NE 23:34:49 74° NE
ARGOS 4.3 23:37:52 32° WSW 23:38:32 34° W 23:43:22 10° NNW
Terra 2.6 23:40:44 50° NNW 23:40:44 50° NNW 23:44:16 10° NNW
H-2A R/B 2.6 23:40:23 48° W 23:40:23 48° W 23:44:43 10° NNW
USA 234 4.3 23:44:02 30° SW 23:44:19 30° SW 23:49:57 10° WNW
S3M 4.0 23:47:55 73° W 23:48:00 73° W 23:54:14 10° N
